Time,TemperatureF,DewpointF,PressureIn,WindDirection,WindDirectionDegrees,WindSpeedMPH,WindSpeedGustMPH,Humidity,HourlyPrecipIn,Conditions,Clouds,dailyrainin,SoftwareType,DateUTC
2013-02-13 03:40:00,64.0,64.0,30.01,SE,135,0.0,0.0,100,-3.49,,,0.00,Weather View 32 v70,2013-02-13 08:40:00,
2013-02-13 03:45:00,64.0,64.0,30.01,SE,135,0.0,0.0,100,-4.24,,,0.00,Weather View 32 v70,2013-02-13 08:45:00,
2013-02-13 03:50:00,64.0,64.0,30.01,SE,135,0.0,0.0,100,-4.99,,,0.00,Weather View 32 v70,2013-02-13 08:50:00,
2013-02-13 04:00:00,64.0,64.0,30.00,SE,135,0.0,0.0,100,-6.48,,,0.00,Weather View 32 v70,2013-02-13 09:00:00,
2013-02-13 04:10:00,64.0,64.0,30.00,SE,135,0.0,0.0,100,0.00,,,0.00,Weather View 32 v70,2013-02-13 09:10:00,
2013-02-13 04:15:00,64.0,64.0,30.00,SE,135,0.0,2.0,100,0.00,,,0.00,Weather View 32 v70,2013-02-13 09:15:00,
2013-02-13 04:20:00,64.0,64.0,30.00,SE,135,0.0,2.0,100,0.00,,,0.00,Weather View 32 v70,2013-02-13 09:20:00,
2013-02-13 04:25:00,64.0,64.0,30.00,SE,135,0.0,2.0,100,0.00,,,0.00,Weather View 32 v70,2013-02-13 09:25:00,
2013-02-13 04:30:00,64.0,64.0,30.00,SE,135,0.0,2.0,100,0.00,,,0.00,Weather View 32 v70,2013-02-13 09:30:00,
2013-02-13 04:40:00,65.0,65.0,30.00,SE,135,0.0,3.0,100,0.00,,,0.00,Weather View 32 v70,2013-02-13 09:40:00,
2013-02-13 04:45:00,65.0,65.0,30.00,West,270,0.0,5.0,100,0.00,,,0.00,Weather View 32 v70,2013-02-13 09:45:00,
2013-02-13 04:55:00,66.0,66.0,29.99,SE,135,0.0,6.0,100,0.00,,,0.00,Weather View 32 v70,2013-02-13 09:55:00,
2013-02-13 05:00:00,66.0,66.0,29.99,South,180,0.0,6.0,100,0.00,,,0.00,Weather View 32 v70,2013-02-13 10:00:00,
2013-02-13 05:05:00,66.0,66.0,29.99,West,270,0.0,6.0,100,0.00,,,0.00,Weather View 32 v70,2013-02-13 10:05:00,
2013-02-13 05:10:00,67.0,67.0,29.98,SW,225,1.0,6.0,100,0.00,,,0.00,Weather View 32 v70,2013-02-13 10:10:00,
2013-02-13 05:15:00,67.0,67.0,29.98,WSW,247,0.0,6.0,100,0.00,,,0.00,Weather View 32 v70,2013-02-13 10:15:00,
2013-02-13 05:20:00,67.0,67.0,29.99,WSW,247,4.0,6.0,100,0.00,,,0.00,Weather View 32 v70,2013-02-13 10:20:00,
2013-02-13 05:25:00,67.0,67.0,29.99,SW,225,2.0,7.0,100,0.00,,,0.00,Weather View 32 v70,2013-02-13 10:25:00,
2013-02-13 05:30:00,67.0,67.0,29.99,West,270,1.0,7.0,100,0.00,,,0.00,Weather View 32 v70,2013-02-13 10:30:00,
2013-02-13 05:35:00,67.0,67.0,29.99,WSW,247,2.0,7.0,100,0.00,,,0.00,Weather View 32 v70,2013-02-13 10:35:00,
2013-02-13 05:40:00,67.0,67.0,29.99,South,180,0.0,8.0,100,0.00,,,0.00,Weather View 32 v70,2013-02-13 10:40:00,
2013-02-13 05:50:00,68.0,68.0,29.99,South,180,4.0,8.0,100,0.00,,,0.00,Weather View 32 v70,2013-02-13 10:50:00,
2013-02-13 05:55:00,68.0,68.0,29.99,NE,45,1.0,8.0,100,0.00,,,0.00,Weather View 32 v70,2013-02-13 10:55:00,
2013-02-13 06:00:00,68.0,68.0,29.99,SE,135,3.0,8.0,100,0.00,,,0.00,Weather View 32 v70,2013-02-13 11:00:00,
2013-02-13 06:05:00,68.0,68.0,29.99,SSE,157,5.0,9.0,100,0.00,,,0.00,Weather View 32 v70,2013-02-13 11:05:00,
2013-02-13 06:10:00,68.0,68.0,29.99,SW,225,2.0,9.0,100,0.00,,,0.00,Weather View 32 v70,2013-02-13 11:10:00,
2013-02-13 06:15:00,68.0,68.0,29.99,South,180,0.0,9.0,100,0.00,,,0.00,Weather View 32 v70,2013-02-13 11:15:00,
2013-02-13 06:20:00,68.0,68.0,29.99,West,270,2.0,9.0,100,0.00,,,0.00,Weather View 32 v70,2013-02-13 11:20:00,
2013-02-13 06:25:00,68.0,68.0,29.99,WSW,247,0.0,9.0,100,0.00,,,0.00,Weather View 32 v70,2013-02-13 11:25:00,
2013-02-13 06:30:00,68.0,68.0,29.99,ESE,112,5.0,9.0,100,0.00,,,0.00,Weather View 32 v70,2013-02-13 11:30:00,
2013-02-13 06:35:00,68.0,68.0,29.99,West,270,4.0,9.0,100,0.00,,,0.00,Weather View 32 v70,2013-02-13 11:35:00,
2013-02-13 06:40:00,68.0,68.0,30.00,SE,135,1.0,9.0,100,0.00,,,0.00,Weather View 32 v70,2013-02-13 11:40:00,
2013-02-13 06:41:00,68.0,68.0,30.00,SE,135,1.0,9.0,100,0.00,,,0.00,Weather View 32 v70,2013-02-13 11:41:00,
2013-02-13 06:45:00,68.0,68.0,30.00,SE,135,0.0,9.0,100,0.00,,,0.00,Weather View 32 v70,2013-02-13 11:45:00,
2013-02-13 06:50:00,68.0,68.0,30.00,WSW,247,0.0,9.0,100,0.00,,,0.00,Weather View 32 v70,2013-02-13 11:50:00,
2013-02-13 06:55:00,68.0,68.0,30.00,SW,225,0.0,9.0,100,0.00,,,0.00,Weather View 32 v70,2013-02-13 11:55:00,
2013-02-13 07:00:00,68.0,68.0,30.00,South,180,0.0,9.0,100,0.00,,,0.00,Weather View 32 v70,2013-02-13 12:00:00,
2013-02-13 07:05:00,68.0,68.0,30.00,South,180,0.0,9.0,100,0.00,,,0.00,Weather View 32 v70,2013-02-13 12:05:00,
2013-02-13 07:10:00,68.0,68.0,30.00,SW,225,0.0,9.0,100,0.00,,,0.00,Weather View 32 v70,2013-02-13 12:10:00,
2013-02-13 07:15:00,68.0,68.0,30.00,North,360,0.0,9.0,100,0.00,,,0.00,Weather View 32 v70,2013-02-13 12:15:00,
2013-02-13 07:20:00,69.0,69.0,30.00,West,270,1.0,9.0,100,0.00,,,0.00,Weather View 32 v70,2013-02-13 12:20:00,
2013-02-13 07:30:00,69.0,69.0,30.00,West,270,1.0,9.0,100,0.00,,,0.00,Weather View 32 v70,2013-02-13 12:30:00,
2013-02-13 07:35:00,69.0,69.0,30.00,SW,225,4.0,9.0,100,0.00,,,0.00,Weather View 32 v70,2013-02-13 12:35:00,
2013-02-13 07:40:00,69.0,69.0,30.00,SE,135,0.0,9.0,100,0.00,,,0.00,Weather View 32 v70,2013-02-13 12:40:00,
2013-02-13 07:42:00,69.0,69.0,30.00,SE,135,0.0,9.0,100,0.00,,,0.00,Weather View 32 v70,2013-02-13 12:42:00,
2013-02-13 07:45:00,69.0,69.0,30.00,WSW,247,2.0,9.0,100,0.00,,,0.00,Weather View 32 v70,2013-02-13 12:45:00,
2013-02-13 07:55:00,69.0,69.0,30.00,West,270,0.0,12.0,100,0.00,,,0.00,Weather View 32 v70,2013-02-13 12:55:00,
2013-02-13 08:00:00,69.0,69.0,30.01,South,180,0.0,12.0,100,0.00,,,0.00,Weather View 32 v70,2013-02-13 13:00:00,
2013-02-13 08:05:00,69.0,69.0,30.01,WSW,247,6.0,12.0,100,0.00,,,0.00,Weather View 32 v70,2013-02-13 13:05:00,
2013-02-13 08:10:00,69.0,69.0,30.01,SSE,157,1.0,12.0,100,0.00,,,0.00,Weather View 32 v70,2013-02-13 13:10:00,
2013-02-13 08:15:00,69.0,69.0,30.01,WSW,247,2.0,12.0,100,0.00,,,0.00,Weather View 32 v70,2013-02-13 13:15:00,
2013-02-13 08:20:00,70.0,70.0,30.00,SSW,202,0.0,12.0,100,0.00,,,0.00,Weather View 32 v70,2013-02-13 13:20:00,
2013-02-13 08:30:00,70.0,70.0,30.00,South,180,0.0,12.0,100,0.00,,,0.00,Weather View 32 v70,2013-02-13 13:30:00,
2013-02-13 08:35:00,70.0,70.0,30.00,South,180,6.0,12.0,100,0.00,,,0.00,Weather View 32 v70,2013-02-13 13:35:00,
2013-02-13 08:40:00,71.0,70.7,30.00,SE,135,0.0,12.0,99,0.00,,,0.00,Weather View 32 v70,2013-02-13 13:40:00,
2013-02-13 08:42:00,71.0,70.7,30.00,SE,135,0.0,12.0,99,0.00,,,0.00,Weather View 32 v70,2013-02-13 13:42:00,
2013-02-13 08:45:00,71.0,70.7,30.00,SSE,157,3.0,12.0,99,0.00,,,0.00,Weather View 32 v70,2013-02-13 13:45:00,
2013-02-13 08:50:00,71.0,69.8,30.00,SW,225,4.0,12.0,96,0.00,,,0.00,Weather View 32 v70,2013-02-13 13:50:00,
2013-02-13 08:55:00,71.0,69.8,30.00,SSW,202,0.0,12.0,96,0.00,,,0.00,Weather View 32 v70,2013-02-13 13:55:00,
2013-02-13 09:00:00,72.0,70.2,30.00,South,180,4.0,12.0,94,0.00,,,0.00,Weather View 32 v70,2013-02-13 14:00:00,
2013-02-13 09:05:00,72.0,70.5,30.00,SSW,202,3.0,10.0,95,0.00,,,0.00,Weather View 32 v70,2013-02-13 14:05:00,
2013-02-13 09:10:00,72.0,69.5,30.00,SSW,202,3.0,10.0,92,0.00,,,0.00,Weather View 32 v70,2013-02-13 14:10:00,
2013-02-13 09:15:00,72.0,69.5,30.00,SW,225,4.0,10.0,92,0.00,,,0.00,Weather View 32 v70,2013-02-13 14:15:00,
2013-02-13 09:20:00,73.0,70.2,30.00,SE,135,2.0,10.0,91,0.00,,,0.00,Weather View 32 v70,2013-02-13 14:20:00,
2013-02-13 09:25:00,73.0,70.5,30.00,South,180,5.0,10.0,92,0.00,,,0.00,Weather View 32 v70,2013-02-13 14:25:00,
2013-02-13 09:30:00,73.0,69.6,30.00,SW,225,5.0,10.0,89,0.00,,,0.00,Weather View 32 v70,2013-02-13 14:30:00,
2013-02-13 09:35:00,73.0,69.6,30.00,South,180,6.0,10.0,89,0.00,,,0.00,Weather View 32 v70,2013-02-13 14:35:00,
2013-02-13 09:40:00,73.0,68.9,30.01,SW,225,4.0,10.0,87,0.00,,,0.00,Weather View 32 v70,2013-02-13 14:40:00,
2013-02-13 09:45:00,74.0,69.5,30.01,West,270,6.0,11.0,86,0.00,,,0.00,Weather View 32 v70,2013-02-13 14:45:00,
2013-02-13 09:50:00,74.0,69.5,30.00,South,180,1.0,11.0,86,0.00,,,0.00,Weather View 32 v70,2013-02-13 14:50:00,
2013-02-13 09:55:00,75.0,69.8,30.00,South,180,6.0,11.0,84,0.00,,,0.00,Weather View 32 v70,2013-02-13 14:55:00,
2013-02-13 10:00:00,75.0,69.1,30.00,SSW,202,1.0,11.0,82,0.00,,,0.00,Weather View 32 v70,2013-02-13 15:00:00,
2013-02-13 10:05:00,75.0,68.4,30.00,WSW,247,8.0,11.0,80,0.00,,,0.00,Weather View 32 v70,2013-02-13 15:05:00,
2013-02-13 10:10:00,76.0,69.4,30.00,West,270,6.0,11.0,80,0.00,,,0.00,Weather View 32 v70,2013-02-13 15:10:00,
2013-02-13 10:15:00,76.0,69.7,30.00,WSW,247,2.0,11.0,81,0.00,,,0.00,Weather View 32 v70,2013-02-13 15:15:00,
2013-02-13 10:20:00,76.0,70.1,30.00,SW,225,2.0,11.0,82,0.00,,,0.00,Weather View 32 v70,2013-02-13 15:20:00,
2013-02-13 10:30:00,78.0,69.8,29.98,WSW,247,6.0,11.0,76,0.00,,,0.00,Weather View 32 v70,2013-02-13 15:30:00,
2013-02-13 10:35:00,78.0,69.8,29.98,SSW,202,0.0,11.0,76,0.00,,,0.00,Weather View 32 v70,2013-02-13 15:35:00,
2013-02-13 10:40:00,79.0,69.2,29.98,West,270,0.0,11.0,72,0.00,,,0.00,Weather View 32 v70,2013-02-13 15:40:00,
2013-02-13 10:45:00,80.0,69.7,29.98,WSW,247,2.0,11.0,71,0.00,,,0.00,Weather View 32 v70,2013-02-13 15:45:00,
2013-02-13 10:50:00,80.0,68.0,29.98,WSW,247,4.0,11.0,67,0.00,,,0.00,Weather View 32 v70,2013-02-13 15:50:00,
2013-02-13 10:55:00,80.0,69.3,29.98,SSW,202,0.0,11.0,70,0.00,,,0.00,Weather View 32 v70,2013-02-13 15:55:00,
2013-02-13 11:00:00,81.0,69.0,29.97,SW,225,5.0,11.0,67,0.00,,,0.00,Weather View 32 v70,2013-02-13 16:00:00,
2013-02-13 11:05:00,80.0,67.6,29.97,West,270,9.0,13.0,66,0.00,,,0.00,Weather View 32 v70,2013-02-13 16:05:00,
2013-02-13 11:10:00,81.0,68.5,29.96,SE,135,1.0,13.0,66,0.00,,,0.00,Weather View 32 v70,2013-02-13 16:10:00,
2013-02-13 11:15:00,82.0,68.1,29.96,SE,135,3.0,13.0,63,0.00,,,0.00,Weather View 32 v70,2013-02-13 16:15:00,
2013-02-13 11:20:00,82.0,68.1,29.96,South,180,0.0,13.0,63,0.00,,,0.00,Weather View 32 v70,2013-02-13 16:20:00,
2013-02-13 11:25:00,82.0,68.6,29.96,SE,135,3.0,13.0,64,0.00,,,0.00,Weather View 32 v70,2013-02-13 16:25:00,
2013-02-13 11:30:00,82.0,68.1,29.95,ESE,112,6.0,13.0,63,0.00,,,0.00,Weather View 32 v70,2013-02-13 16:30:00,
2013-02-13 11:35:00,82.0,67.2,29.95,West,270,7.0,13.0,61,0.00,,,0.00,Weather View 32 v70,2013-02-13 16:35:00,
2013-02-13 11:40:00,83.0,69.5,29.95,South,180,1.0,13.0,64,0.00,,,0.00,Weather View 32 v70,2013-02-13 16:40:00,
2013-02-13 11:44:00,83.0,69.5,29.95,South,180,1.0,13.0,64,0.00,,,0.00,Weather View 32 v70,2013-02-13 16:44:00,
2013-02-13 11:45:00,83.0,67.1,29.95,ESE,112,5.0,13.0,59,0.00,,,0.00,Weather View 32 v70,2013-02-13 16:45:00,
2013-02-13 11:50:00,84.0,68.6,29.93,SE,135,8.0,13.0,60,0.00,,,0.00,Weather View 32 v70,2013-02-13 16:50:00,
2013-02-13 11:55:00,84.0,69.0,29.93,South,180,1.0,13.0,61,0.00,,,0.00,Weather View 32 v70,2013-02-13 16:55:00,
2013-02-13 12:00:00,84.0,68.6,29.92,SE,135,6.0,13.0,60,0.00,,,0.00,Weather View 32 v70,2013-02-13 17:00:00,
2013-02-13 12:05:00,85.0,69.0,29.92,South,180,1.0,13.0,59,0.00,,,0.00,Weather View 32 v70,2013-02-13 17:05:00,
2013-02-13 12:10:00,85.0,68.5,29.92,South,180,3.0,13.0,58,0.00,,,0.00,Weather View 32 v70,2013-02-13 17:10:00,
2013-02-13 12:15:00,84.0,67.6,29.92,SW,225,4.0,13.0,58,0.00,,,0.00,Weather View 32 v70,2013-02-13 17:15:00,
2013-02-13 12:20:00,84.0,67.6,29.92,WSW,247,7.0,13.0,58,0.00,,,0.00,Weather View 32 v70,2013-02-13 17:20:00,
2013-02-13 12:25:00,83.0,67.1,29.92,SW,225,6.0,13.0,59,0.00,,,0.00,Weather View 32 v70,2013-02-13 17:25:00,
2013-02-13 12:30:00,83.0,67.1,29.92,West,270,7.0,13.0,59,0.00,,,0.00,Weather View 32 v70,2013-02-13 17:30:00,
2013-02-13 12:35:00,83.0,68.1,29.92,SW,225,4.0,13.0,61,0.00,,,0.00,Weather View 32 v70,2013-02-13 17:35:00,
2013-02-13 12:40:00,84.0,68.1,29.90,South,180,5.0,13.0,59,0.00,,,0.00,Weather View 32 v70,2013-02-13 17:40:00,
2013-02-13 12:44:00,84.0,68.1,29.90,South,180,5.0,13.0,59,0.00,,,0.00,Weather View 32 v70,2013-02-13 17:44:00,
2013-02-13 12:45:00,84.0,68.6,29.90,SSE,157,1.0,13.0,60,0.00,,,0.00,Weather View 32 v70,2013-02-13 17:45:00,
2013-02-13 12:50:00,84.0,68.1,29.90,SSE,157,1.0,13.0,59,0.00,,,0.00,Weather View 32 v70,2013-02-13 17:50:00,
2013-02-13 13:00:00,84.0,67.1,29.89,West,270,9.0,13.0,57,0.00,,,0.00,Weather View 32 v70,2013-02-13 18:00:00,
2013-02-13 13:05:00,85.0,68.5,29.89,South,180,0.0,12.0,58,0.00,,,0.00,Weather View 32 v70,2013-02-13 18:05:00,
2013-02-13 13:10:00,85.0,65.3,29.88,West,270,3.0,12.0,52,0.00,,,0.00,Weather View 32 v70,2013-02-13 18:10:00,
2013-02-13 13:15:00,85.0,65.9,29.88,WSW,247,4.0,12.0,53,0.00,,,0.00,Weather View 32 v70,2013-02-13 18:15:00,
2013-02-13 13:20:00,86.0,65.1,29.87,SE,135,4.0,12.0,50,0.00,,,0.00,Weather View 32 v70,2013-02-13 18:20:00,
2013-02-13 13:25:00,85.0,64.8,29.87,SSW,202,9.0,12.0,51,0.00,,,0.00,Weather View 32 v70,2013-02-13 18:25:00,
2013-02-13 13:30:00,85.0,66.4,29.87,SW,225,2.0,12.0,54,0.00,,,0.00,Weather View 32 v70,2013-02-13 18:30:00,
2013-02-13 13:35:00,86.0,65.7,29.87,SSW,202,9.0,15.0,51,0.00,,,0.00,Weather View 32 v70,2013-02-13 18:35:00,
2013-02-13 13:40:00,86.0,63.3,29.86,SSW,202,4.0,15.0,47,0.00,,,0.00,Weather View 32 v70,2013-02-13 18:40:00,
2013-02-13 13:45:00,86.0,65.1,29.86,WSW,247,4.0,15.0,50,0.00,,,0.00,Weather View 32 v70,2013-02-13 18:45:00,
2013-02-13 13:50:00,86.0,63.3,29.86,West,270,3.0,15.0,47,0.00,,,0.00,Weather View 32 v70,2013-02-13 18:50:00,
2013-02-13 13:55:00,87.0,63.6,29.86,West,270,3.0,15.0,46,0.00,,,0.00,Weather View 32 v70,2013-02-13 18:55:00,
2013-02-13 14:00:00,86.0,63.3,29.85,SW,225,6.0,15.0,47,0.00,,,0.00,Weather View 32 v70,2013-02-13 19:00:00,
2013-02-13 14:10:00,87.0,63.6,29.84,SW,225,9.0,15.0,46,0.00,,,0.00,Weather View 32 v70,2013-02-13 19:10:00,
2013-02-13 14:15:00,86.0,63.3,29.84,SSW,202,4.0,15.0,47,0.00,,,0.00,Weather View 32 v70,2013-02-13 19:15:00,
2013-02-13 14:20:00,87.0,64.3,29.84,SSE,157,1.0,15.0,47,0.00,,,0.00,Weather View 32 v70,2013-02-13 19:20:00,
2013-02-13 14:25:00,87.0,63.6,29.84,WSW,247,2.0,15.0,46,0.00,,,0.00,Weather View 32 v70,2013-02-13 19:25:00,
2013-02-13 14:30:00,88.0,63.9,29.83,WSW,247,5.0,15.0,45,0.00,,,0.00,Weather View 32 v70,2013-02-13 19:30:00,
2013-02-13 14:35:00,87.0,64.3,29.83,WSW,247,3.0,15.0,47,0.00,,,0.00,Weather View 32 v70,2013-02-13 19:35:00,
2013-02-13 14:40:00,88.0,63.3,29.82,South,180,6.0,15.0,44,0.00,,,0.00,Weather View 32 v70,2013-02-13 19:40:00,
2013-02-13 14:45:00,89.0,62.8,29.82,SW,225,9.0,15.0,42,0.00,,,0.00,Weather View 32 v70,2013-02-13 19:45:00,
2013-02-13 14:46:00,89.0,62.8,29.82,SW,225,9.0,15.0,42,0.00,,,0.00,Weather View 32 v70,2013-02-13 19:46:00,
2013-02-13 14:55:00,88.0,61.9,29.82,SW,225,10.0,17.0,42,0.00,,,0.00,Weather View 32 v70,2013-02-13 19:55:00,
2013-02-13 15:00:00,87.0,61.7,29.83,West,270,2.0,17.0,43,0.00,,,0.00,Weather View 32 v70,2013-02-13 20:00:00,
2013-02-13 15:10:00,87.0,60.4,29.82,SW,225,4.0,17.0,41,0.00,,,0.00,Weather View 32 v70,2013-02-13 20:10:00,
2013-02-13 15:15:00,87.0,62.4,29.82,SW,225,4.0,17.0,44,0.00,,,0.00,Weather View 32 v70,2013-02-13 20:15:00,
2013-02-13 15:25:00,87.0,60.4,29.81,West,270,7.0,17.0,41,0.00,,,0.00,Weather View 32 v70,2013-02-13 20:25:00,
2013-02-13 15:30:00,86.0,60.8,29.82,SW,225,3.0,17.0,43,0.00,,,0.00,Weather View 32 v70,2013-02-13 20:30:00,
2013-02-13 15:35:00,87.0,61.0,29.82,South,180,1.0,17.0,42,0.00,,,0.00,Weather View 32 v70,2013-02-13 20:35:00,
2013-02-13 15:40:00,88.0,61.3,29.81,West,270,9.0,17.0,41,0.00,,,0.00,Weather View 32 v70,2013-02-13 20:40:00,
2013-02-13 15:45:00,87.0,61.0,29.81,SSE,157,1.0,17.0,42,0.00,,,0.00,Weather View 32 v70,2013-02-13 20:45:00,
2013-02-13 15:46:00,87.0,61.0,29.81,SSE,157,1.0,17.0,42,0.00,,,0.00,Weather View 32 v70,2013-02-13 20:46:00,
2013-02-13 15:50:00,88.0,61.3,29.81,WSW,247,3.0,17.0,41,0.00,,,0.00,Weather View 32 v70,2013-02-13 20:50:00,
2013-02-13 15:55:00,88.0,60.6,29.81,NNW,337,2.0,17.0,40,0.00,,,0.00,Weather View 32 v70,2013-02-13 20:55:00,
2013-02-13 16:00:00,88.0,60.6,29.81,West,270,6.0,17.0,40,0.00,,,0.00,Weather View 32 v70,2013-02-13 21:00:00,
2013-02-13 16:05:00,88.0,60.6,29.81,SW,225,7.0,15.0,40,0.00,,,0.00,Weather View 32 v70,2013-02-13 21:05:00,
2013-02-13 16:10:00,88.0,59.8,29.82,NE,45,1.0,15.0,39,0.00,,,0.00,Weather View 32 v70,2013-02-13 21:10:00,
2013-02-13 16:15:00,87.0,60.4,29.82,West,270,5.0,15.0,41,0.00,,,0.00,Weather View 32 v70,2013-02-13 21:15:00,
2013-02-13 16:20:00,88.0,60.6,29.82,WSW,247,6.0,15.0,40,0.00,,,0.00,Weather View 32 v70,2013-02-13 21:20:00,
2013-02-13 16:25:00,87.0,61.0,29.82,SW,225,1.0,15.0,42,0.00,,,0.00,Weather View 32 v70,2013-02-13 21:25:00,
2013-02-13 16:30:00,86.0,61.5,29.82,SW,225,6.0,15.0,44,0.00,,,0.00,Weather View 32 v70,2013-02-13 21:30:00,
2013-02-13 16:40:00,84.0,61.5,29.82,SW,225,1.0,13.0,47,0.00,,,0.00,Weather View 32 v70,2013-02-13 21:40:00,
2013-02-13 16:45:00,84.0,62.1,29.82,SE,135,3.0,13.0,48,0.00,,,0.00,Weather View 32 v70,2013-02-13 21:45:00,
2013-02-13 16:47:00,84.0,62.1,29.82,SE,135,3.0,13.0,48,0.00,,,0.00,Weather View 32 v70,2013-02-13 21:47:00,
2013-02-13 16:50:00,84.0,62.1,29.82,SW,225,4.0,13.0,48,0.00,,,0.00,Weather View 32 v70,2013-02-13 21:50:00,
2013-02-13 16:55:00,84.0,62.1,29.82,South,180,1.0,13.0,48,0.00,,,0.00,Weather View 32 v70,2013-02-13 21:55:00,
2013-02-13 17:00:00,84.0,62.1,29.82,SW,225,3.0,13.0,48,0.00,,,0.00,Weather View 32 v70,2013-02-13 22:00:00,
2013-02-13 17:05:00,84.0,62.7,29.82,SW,225,2.0,13.0,49,0.00,,,0.00,Weather View 32 v70,2013-02-13 22:05:00,
2013-02-13 17:10:00,84.0,62.7,29.82,SW,225,3.0,13.0,49,0.00,,,0.00,Weather View 32 v70,2013-02-13 22:10:00,
2013-02-13 17:15:00,84.0,63.3,29.82,West,270,4.0,13.0,50,0.00,,,0.00,Weather View 32 v70,2013-02-13 22:15:00,
2013-02-13 17:20:00,84.0,62.1,29.83,SW,225,7.0,13.0,48,0.00,,,0.00,Weather View 32 v70,2013-02-13 22:20:00,
2013-02-13 17:25:00,84.0,62.7,29.83,WSW,247,2.0,13.0,49,0.00,,,0.00,Weather View 32 v70,2013-02-13 22:25:00,
2013-02-13 17:30:00,84.0,62.7,29.83,SSW,202,3.0,13.0,49,0.00,,,0.00,Weather View 32 v70,2013-02-13 22:30:00,
2013-02-13 17:35:00,83.0,62.9,29.83,West,270,6.0,13.0,51,0.00,,,0.00,Weather View 32 v70,2013-02-13 22:35:00,
2013-02-13 17:40:00,83.0,62.9,29.84,SW,225,2.0,13.0,51,0.00,,,0.00,Weather View 32 v70,2013-02-13 22:40:00,
2013-02-13 17:47:00,82.0,62.6,29.84,SW,225,0.0,13.0,52,0.00,,,0.00,Weather View 32 v70,2013-02-13 22:47:00,
2013-02-13 17:50:00,82.0,63.1,29.84,SSW,202,1.0,11.0,53,0.00,,,0.00,Weather View 32 v70,2013-02-13 22:50:00,
2013-02-13 17:55:00,81.0,62.7,29.84,SW,225,3.0,11.0,54,0.00,,,0.00,Weather View 32 v70,2013-02-13 22:55:00,
2013-02-13 18:00:00,81.0,62.7,29.85,WSW,247,3.0,11.0,54,0.00,,,0.00,Weather View 32 v70,2013-02-13 23:00:00,
2013-02-13 18:05:00,81.0,63.2,29.85,SSW,202,1.0,11.0,55,0.00,,,0.00,Weather View 32 v70,2013-02-13 23:05:00,
2013-02-13 18:10:00,80.0,62.8,29.85,WSW,247,2.0,11.0,56,0.00,,,0.00,Weather View 32 v70,2013-02-13 23:10:00,
2013-02-13 18:15:00,80.0,63.3,29.85,SSW,202,3.0,11.0,57,0.00,,,0.00,Weather View 32 v70,2013-02-13 23:15:00,
2013-02-13 18:20:00,79.0,62.9,29.85,SW,225,1.0,11.0,58,0.00,,,0.00,Weather View 32 v70,2013-02-13 23:20:00,
2013-02-13 18:25:00,79.0,63.9,29.85,West,270,6.0,11.0,60,0.00,,,0.00,Weather View 32 v70,2013-02-13 23:25:00,
2013-02-13 18:30:00,79.0,63.9,29.85,SW,225,3.0,11.0,60,0.00,,,0.00,Weather View 32 v70,2013-02-13 23:30:00,
2013-02-13 18:40:00,78.0,63.9,29.86,WSW,247,6.0,11.0,62,0.00,,,0.00,Weather View 32 v70,2013-02-13 23:40:00,
2013-02-13 18:45:00,78.0,64.3,29.87,SW,225,0.0,11.0,63,0.00,,,0.00,Weather View 32 v70,2013-02-13 23:45:00,
2013-02-13 18:48:00,78.0,64.3,29.87,SW,225,0.0,11.0,63,0.00,,,0.00,Weather View 32 v70,2013-02-13 23:48:00,
2013-02-13 18:50:00,78.0,64.3,29.87,SW,225,0.0,10.0,63,0.00,,,0.00,Weather View 32 v70,2013-02-13 23:50:00,
2013-02-13 18:55:00,78.0,64.8,29.87,WSW,247,3.0,10.0,64,0.00,,,0.00,Weather View 32 v70,2013-02-13 23:55:00,
2013-02-13 19:00:00,77.0,63.8,29.87,SW,225,1.0,10.0,64,0.00,,,0.00,Weather View 32 v70,2013-02-14 00:00:00,
2013-02-13 19:05:00,77.0,64.3,29.88,WSW,247,3.0,9.0,65,0.00,,,0.00,Weather View 32 v70,2013-02-14 00:05:00,
2013-02-13 19:10:00,77.0,64.7,29.88,WSW,247,3.0,9.0,66,0.00,,,0.00,Weather View 32 v70,2013-02-14 00:10:00,
2013-02-13 19:20:00,77.0,64.7,29.88,West,270,2.0,9.0,66,0.00,,,0.00,Weather View 32 v70,2013-02-14 00:20:00,
2013-02-13 19:25:00,76.0,64.2,29.88,West,270,3.0,9.0,67,0.00,,,0.00,Weather View 32 v70,2013-02-14 00:25:00,
2013-02-13 19:30:00,76.0,64.2,29.88,SW,225,4.0,9.0,67,0.00,,,0.00,Weather View 32 v70,2013-02-14 00:30:00,
2013-02-13 19:35:00,76.0,64.6,29.89,WSW,247,5.0,9.0,68,0.00,,,0.00,Weather View 32 v70,2013-02-14 00:35:00,
2013-02-13 19:40:00,76.0,65.1,29.89,SW,225,1.0,9.0,69,0.00,,,0.00,Weather View 32 v70,2013-02-14 00:40:00,
2013-02-13 19:45:00,76.0,65.1,29.90,SW,225,1.0,9.0,69,0.00,,,0.00,Weather View 32 v70,2013-02-14 00:45:00,
2013-02-13 19:48:00,76.0,65.1,29.90,SW,225,1.0,9.0,69,0.00,,,0.00,Weather View 32 v70,2013-02-14 00:48:00,
2013-02-13 19:50:00,76.0,65.1,29.90,SW,225,2.0,9.0,69,0.00,,,0.00,Weather View 32 v70,2013-02-14 00:50:00,
2013-02-13 20:00:00,75.0,64.1,29.90,West,270,1.0,9.0,69,0.00,,,0.00,Weather View 32 v70,2013-02-14 01:00:00,
2013-02-13 20:05:00,75.0,64.5,29.90,West,270,2.0,9.0,70,0.00,,,0.00,Weather View 32 v70,2013-02-14 01:05:00,
2013-02-13 20:10:00,75.0,64.5,29.90,South,180,3.0,9.0,70,0.00,,,0.00,Weather View 32 v70,2013-02-14 01:10:00,
2013-02-13 20:15:00,75.0,64.5,29.91,SW,225,4.0,9.0,70,0.00,,,0.00,Weather View 32 v70,2013-02-14 01:15:00,
2013-02-13 20:25:00,75.0,64.9,29.91,WSW,247,6.0,10.0,71,0.00,,,0.00,Weather View 32 v70,2013-02-14 01:25:00,
2013-02-13 20:30:00,75.0,64.9,29.91,West,270,3.0,10.0,71,0.00,,,0.00,Weather View 32 v70,2013-02-14 01:30:00,
2013-02-13 20:35:00,74.0,64.4,29.92,WSW,247,2.0,10.0,72,0.00,,,0.00,Weather View 32 v70,2013-02-14 01:35:00,
2013-02-13 20:40:00,74.0,64.8,29.92,SW,225,1.0,10.0,73,0.00,,,0.00,Weather View 32 v70,2013-02-14 01:40:00,
2013-02-13 20:45:00,74.0,65.2,29.93,SW,225,4.0,10.0,74,0.00,,,0.00,Weather View 32 v70,2013-02-14 01:45:00,
2013-02-13 20:49:00,74.0,65.2,29.93,SW,225,4.0,10.0,74,0.00,,,0.00,Weather View 32 v70,2013-02-14 01:49:00,
2013-02-13 20:50:00,74.0,65.5,29.93,West,270,0.0,10.0,75,0.00,,,0.00,Weather View 32 v70,2013-02-14 01:50:00,
2013-02-13 21:00:00,74.0,65.5,29.93,SW,225,1.0,10.0,75,0.00,,,0.00,Weather View 32 v70,2013-02-14 02:00:00,
2013-02-13 21:05:00,74.0,65.9,29.93,SW,225,3.0,10.0,76,0.00,,,0.00,Weather View 32 v70,2013-02-14 02:05:00,
2013-02-13 21:10:00,74.0,66.7,29.93,WSW,247,4.0,10.0,78,0.00,,,0.00,Weather View 32 v70,2013-02-14 02:10:00,
2013-02-13 21:15:00,74.0,66.7,29.94,West,270,4.0,10.0,78,0.00,,,0.00,Weather View 32 v70,2013-02-14 02:15:00,
2013-02-13 21:20:00,74.0,66.7,29.94,SW,225,2.0,10.0,78,0.00,,,0.00,Weather View 32 v70,2013-02-14 02:20:00,
2013-02-13 21:25:00,73.0,66.1,29.94,SW,225,1.0,10.0,79,0.00,,,0.00,Weather View 32 v70,2013-02-14 02:25:00,
2013-02-13 21:30:00,73.0,66.4,29.94,SW,225,0.0,10.0,80,0.00,,,0.00,Weather View 32 v70,2013-02-14 02:30:00,
2013-02-13 21:35:00,73.0,66.8,29.94,WSW,247,3.0,8.0,81,0.00,,,0.00,Weather View 32 v70,2013-02-14 02:35:00,
2013-02-13 21:40:00,73.0,66.8,29.94,WSW,247,2.0,8.0,81,0.00,,,0.00,Weather View 32 v70,2013-02-14 02:40:00,
2013-02-13 21:45:00,73.0,67.2,29.96,North,360,3.0,9.0,82,0.00,,,0.00,Weather View 32 v70,2013-02-14 02:45:00,
2013-02-13 21:49:00,73.0,67.2,29.96,North,360,3.0,9.0,82,0.00,,,0.00,Weather View 32 v70,2013-02-14 02:49:00,
2013-02-13 21:55:00,71.0,61.1,29.98,NE,45,6.0,11.0,71,0.00,,,0.00,Weather View 32 v70,2013-02-14 02:55:00,
2013-02-13 22:00:00,70.0,61.3,29.98,SW,225,7.0,11.0,74,0.00,,,0.00,Weather View 32 v70,2013-02-14 03:00:00,
2013-02-13 22:05:00,69.0,60.7,30.00,NW,315,1.0,11.0,75,0.00,,,0.00,Weather View 32 v70,2013-02-14 03:05:00,
2013-02-13 22:10:00,68.0,61.2,30.00,NW,315,1.0,11.0,79,0.01,,,0.01,Weather View 32 v70,2013-02-14 03:10:00,
2013-02-13 22:20:00,66.0,60.3,30.01,NW,315,0.0,11.0,82,0.01,,,0.01,Weather View 32 v70,2013-02-14 03:20:00,
2013-02-13 22:30:00,65.0,60.7,30.02,NNW,337,1.0,11.0,86,0.01,,,0.01,Weather View 32 v70,2013-02-14 03:30:00,
2013-02-13 22:35:00,65.0,61.0,30.02,North,360,0.0,11.0,87,0.01,,,0.01,Weather View 32 v70,2013-02-14 03:35:00,
2013-02-13 22:40:00,65.0,61.0,30.02,NE,45,1.0,11.0,87,0.01,,,0.01,Weather View 32 v70,2013-02-14 03:40:00,
2013-02-13 22:50:00,65.0,60.7,30.02,NW,315,0.0,11.0,86,0.01,,,0.01,Weather View 32 v70,2013-02-14 03:50:00,
2013-02-13 22:55:00,65.0,60.4,30.02,WNW,292,0.0,11.0,85,0.01,,,0.01,Weather View 32 v70,2013-02-14 03:55:00,
2013-02-13 23:00:00,65.0,59.0,30.02,NE,45,2.0,11.0,81,0.01,,,0.01,Weather View 32 v70,2013-02-14 04:00:00,
2013-02-13 23:05:00,65.0,58.7,30.02,NW,315,2.0,10.0,80,0.01,,,0.01,Weather View 32 v70,2013-02-14 04:05:00,
2013-02-13 23:10:00,65.0,59.4,30.02,NNW,337,0.0,10.0,82,0.00,,,0.01,Weather View 32 v70,2013-02-14 04:10:00,
2013-02-13 23:15:00,65.0,59.4,30.03,NNW,337,0.0,10.0,82,0.00,,,0.01,Weather View 32 v70,2013-02-14 04:15:00,
2013-02-13 23:20:00,65.0,59.4,30.03,ENE,67,0.0,7.0,82,0.00,,,0.01,Weather View 32 v70,2013-02-14 04:20:00,
2013-02-13 23:25:00,65.0,59.0,30.04,NE,45,0.0,7.0,81,0.00,,,0.01,Weather View 32 v70,2013-02-14 04:25:00,
2013-02-13 23:30:00,65.0,59.0,30.04,NE,45,0.0,7.0,81,0.00,,,0.01,Weather View 32 v70,2013-02-14 04:30:00,
2013-02-13 23:35:00,65.0,59.0,30.04,NW,315,0.0,7.0,81,0.00,,,0.01,Weather View 32 v70,2013-02-14 04:35:00,
2013-02-13 23:40:00,65.0,59.0,30.04,NW,315,0.0,7.0,81,0.00,,,0.01,Weather View 32 v70,2013-02-14 04:40:00,
2013-02-13 23:45:00,65.0,59.0,30.04,NW,315,1.0,7.0,81,0.00,,,0.01,Weather View 32 v70,2013-02-14 04:45:00,
2013-02-13 23:50:00,65.0,59.0,30.04,NW,315,0.0,6.0,81,0.00,,,0.01,Weather View 32 v70,2013-02-14 04:50:00,
2013-02-13 23:51:00,65.0,59.0,30.04,NW,315,0.0,6.0,81,0.00,,,0.01,Weather View 32 v70,2013-02-14 04:51:00,
2013-02-13 23:55:00,65.0,59.0,30.03,North,360,2.0,6.0,81,0.00,,,0.01,Weather View 32 v70,2013-02-14 04:55:00,